GW2683 Weather Reports


time (UTC)temp
F
wind
direction
speed
knots
gust
knots
rain 1hr
in
rain 24hr
in
rain mn
in
humidity
%
barometer
mb
20260505041303 52 340 0.9 0.9 0.00 0.00 0.00 70 1008.4
20260505040303 53 340 0.0 1.7 0.00 0.00 0.00 70 1008.4
20260505035803 53 340 0.0 1.7 0.00 0.00 0.00 69 1008.4
20260505034803 54 340 0.9 1.7 0.00 0.00 0.00 67 1008.4
20260505034303 55 346 0.9 1.7 0.00 0.00 0.00 67 1008.4
20260505033803 55 329 0.0 1.7 0.00 0.00 0.00 66 1008.4
20260505033303 56 342 0.0 1.7 0.00 0.00 0.00 64 1008.3
20260505032803 57 335 0.9 1.7 0.00 0.00 0.00 63 1008.3
20260505032304 57 337 0.9 1.7 0.00 0.00 0.00 62 1008.2
20260505031803 57 334 0.9 1.7 0.00 0.00 0.00 61 1008.4
20260505031303 58 355 0.0 1.7 0.00 0.00 0.00 60 1008.5
20260505030303 58 305 0.0 1.7 0.00 0.00 0.00 59 1008.5
20260505025803 59 222 0.0 1.7 0.00 0.00 0.00 58 1008.6
20260505024803 59 286 0.0 1.7 0.00 0.00 0.00 58 1008.6
20260505023803 59 158 0.9 1.7 0.00 0.00 0.00 55 1008.7
20260505023304 59 109 0.9 2.6 0.00 0.00 0.00 54 1008.8
20260505022803 60 189 0.0 2.6 0.00 0.00 0.00 54 1008.8
20260505022304 60 226 0.0 1.7 0.00 0.00 0.00 54 1008.8
20260505021803 60 304 0.9 1.7 0.00 0.00 0.00 54 1008.8
20260505021304 60 215 0.0 2.6 0.00 0.00 0.00 54 1008.8
20260505020804 60 223 0.0 2.6 0.00 0.00 0.00 53 1008.8
20260505020303 60 172 0.9 2.6 0.00 0.00 0.00 53 1008.8
20260505015803 61 194 0.0 4.3 0.00 0.00 0.00 53 1008.8
20260505015303 61 197 0.9 5.2 0.00 0.00 0.00 53 1008.7
20260505014803 61 120 1.7 5.2 0.00 0.00 0.00 52 1008.7
20260505014304 61 138 0.9 2.6 0.00 0.00 0.00 51 1008.6
20260505013803 61 49 0.9 4.3 0.00 0.00 0.00 52 1008.6
20260505012803 62 188 0.9 8.7 0.00 0.00 0.00 50 1008.6
20260505012304 62 161 1.7 8.7 0.00 0.00 0.00 50 1008.6
20260505011803 62 164 2.6 8.7 0.00 0.00 0.00 50 1008.6
20260505011303 62 159 0.9 5.2 0.00 0.00 0.00 50 1008.5
20260505010303 62 151 0.9 4.3 0.00 0.00 0.00 50 1008.4
20260505005803 62 194 0.9 4.3 0.00 0.00 0.00 49 1008.3
20260505005304 62 172 1.7 4.3 0.00 0.00 0.00 50 1008.3
20260505004803 62 196 0.9 4.3 0.00 0.00 0.00 49 1008.2
20260505004303 62 121 0.9 2.6 0.00 0.00 0.00 49 1008.2
20260505003803 63 195 0.9 2.6 0.00 0.00 0.00 50 1008.1
20260505003303 63 141 0.0 2.6 0.00 0.00 0.00 49 1008.0
20260505002803 63 144 0.0 4.3 0.00 0.00 0.00 48 1008.0
20260505002304 64 161 0.9 4.3 0.00 0.00 0.00 47 1007.9
20260505001303 64 159 1.7 2.6 0.00 0.00 0.00 46 1007.7
20260505000803 64 98 0.0 2.6 0.00 0.00 0.00 46 1007.7
20260505000304 65 197 0.9 2.6 0.00 0.00 0.00 45 1007.7
20260504235804 65 157 0.9 8.7 0.00 0.00 0.00 45 1007.7
20260504235304 66 189 1.7 8.7 0.00 0.00 0.00 44 1007.7
20260504233303 67 189 3.5 8.7 0.00 0.00 0.00 41 1007.6
20260504232803 68 207 1.7 8.7 0.00 0.00 0.00 41 1007.5
20260504232304 68 185 1.7 5.2 0.00 0.00 0.00 42 1007.6
20260504231804 68 95 0.9 5.2 0.00 0.00 0.00 41 1007.5
20260504231303 68 206 1.7 6.1 0.00 0.00 0.00 42 1007.4
20260504225804 68 135 2.6 8.7 0.00 0.00 0.00 39 1007.3
20260504225304 69 144 2.6 8.7 0.00 0.00 0.00 41 1007.2
20260504224803 69 176 2.6 8.7 0.00 0.00 0.00 40 1007.1
20260504223803 69 159 4.3 10.4 0.00 0.00 0.00 39 1007.0
20260504223303 69 153 1.7 7.8 0.00 0.00 0.00 39 1007.0
20260504222804 69 164 2.6 10.4 0.00 0.00 0.00 38 1007.0
20260504221803 69 149 2.6 10.4 0.00 0.00 0.00 38 1007.1
20260504221304 70 140 4.3 10.4 0.00 0.00 0.00 38 1007.1
20260504220803 70 150 5.2 10.4 0.00 0.00 0.00 37 1007.3
20260504220303 71 161 4.3 10.4 0.00 0.00 0.00 36 1007.3
20260504215803 70 195 2.6 7.0 0.00 0.00 0.00 37 1007.3
20260504215304 70 121 3.5 6.1 0.00 0.00 0.00 37 1007.2
20260504214804 70 155 4.3 6.1 0.00 0.00 0.00 38 1007.2
20260504214304 70 165 1.7 8.7 0.00 0.00 0.00 38 1007.3
20260504213803 70 133 3.5 8.7 0.00 0.00 0.00 37 1007.4
20260504213303 70 148 2.6 8.7 0.00 0.00 0.00 37 1007.3
20260504212804 71 159 5.2 8.7 0.00 0.00 0.00 36 1007.3
20260504212304 71 211 3.5 13.9 0.00 0.00 0.00 35 1007.5
20260504211804 71 180 1.7 13.9 0.00 0.00 0.00 36 1007.5
20260504211304 70 202 0.9 7.8 0.00 0.00 0.00 37 1007.5
20260504210803 70 135 3.5 10.4 0.00 0.00 0.00 36 1007.4
20260504210303 70 212 2.6 10.4 0.00 0.00 0.00 37 1007.5
20260504205304 70 196 3.5 10.4 0.00 0.00 0.00 35 1007.6
20260504204803 70 202 2.6 10.4 0.00 0.00 0.00 36 1007.6
20260504204304 70 144 2.6 12.2 0.00 0.00 0.00 37 1007.6
20260504203803 70 118 4.3 12.2 0.00 0.00 0.00 35 1007.9
20260504203303 69 154 2.6 11.3 0.00 0.00 0.00 37 1008.0
20260504202803 70 166 5.2 11.3 0.00 0.00 0.00 38 1008.0
20260504202305 69 171 2.6 11.3 0.00 0.00 0.00 37 1008.0
20260504201803 69 156 2.6 11.3 0.00 0.00 0.00 36 1008.0
20260504201304 69 185 4.3 17.4 0.00 0.00 0.00 36 1008.0
20260504200803 69 157 4.3 18.2 0.00 0.00 0.00 38 1008.1
20260504200303 68 231 7.8 18.2 0.00 0.00 0.00 37 1008.1
20260504195304 68 179 2.6 13.0 0.00 0.00 0.00 37 1008.2
20260504194803 68 193 5.2 13.0 0.00 0.00 0.00 37 1008.4
20260504194304 69 127 1.7 17.4 0.00 0.00 0.00 38 1008.4
20260504193803 68 150 4.3 17.4 0.00 0.00 0.00 39 1008.6
20260504193303 68 180 5.2 17.4 0.00 0.00 0.00 38 1008.6
20260504192803 69 207 3.5 12.2 0.00 0.00 0.00 38 1008.7
20260504192304 68 209 4.3 12.2 0.00 0.00 0.00 39 1008.7
20260504191803 68 162 4.3 12.2 0.00 0.00 0.00 38 1008.7
20260504190804 68 229 6.1 13.9 0.00 0.00 0.00 39 1008.8
20260504190304 68 181 5.2 13.9 0.00 0.00 0.00 41 1008.8
20260504184804 66 210 6.1 14.8 0.00 0.00 0.00 40 1009.2
20260504183804 66 169 4.3 12.2 0.00 0.00 0.00 39 1009.2
20260504183304 67 171 5.2 10.4 0.00 0.00 0.00 39 1009.3
20260504182304 66 165 5.2 10.4 0.00 0.00 0.00 39 1009.3
20260504181804 66 166 1.7 10.4 0.00 0.00 0.00 41 1009.2
20260504180803 66 144 8.7 17.4 0.00 0.00 0.00 41 1009.4
20260504180304 65 167 3.5 13.9 0.00 0.00 0.00 40 1009.3
20260504175804 65 202 6.1 17.4 0.00 0.00 0.00 39 1009.4
20260504175304 66 225 7.8 17.4 0.00 0.00 0.00 38 1009.4
20260504174804 66 228 7.0 17.4 0.00 0.00 0.00 40 1009.4
20260504174303 66 261 5.2 12.2 0.00 0.00 0.00 38 1009.6
20260504173803 66 147 1.7 12.2 0.00 0.00 0.00 38 1009.6
20260504172802 65 237 7.8 12.2 0.00 0.00 0.00 40 1009.6
20260504172304 65 223 6.1 12.2 0.00 0.00 0.00 40 1009.7
20260504171802 65 215 4.3 13.0 0.00 0.00 0.00 41 1009.7
20260504171303 65 240 6.1 13.0 0.00 0.00 0.00 40 1009.7
20260504170802 65 168 3.5 13.0 0.00 0.00 0.00 43 1009.8
20260504170303 64 211 6.1 15.6 0.00 0.00 0.00 41 1010.1
20260504160303 63 202 8.7 13.9 0.00 0.00 0.00 43 1010.9
20260504141303 58 189 3.5 10.4 0.00 0.00 0.00 43 1011.8
20260504140802 58 195 4.3 13.0 0.00 0.00 0.00 42 1012.0
20260504140303 58 150 5.2 13.0 0.00 0.00 0.00 43 1012.0
20260504130803 52 228 0.9 4.3 0.00 0.00 0.00 53 1012.4
20260504130303 52 234 0.9 5.2 0.00 0.00 0.00 53 1012.4
20260504120303 42 314 0.0 0.0 0.00 0.00 0.00 79 1012.9
20260504110303 33 314 0.0 0.9 0.00 0.00 0.00 86 1013.0
20260504100303 31 314 0.0 0.9 0.00 0.00 0.00 85 1012.7
20260504081803 33 299 0.0 0.0 0.00 0.00 0.00 83 1012.9
20260504080803 33 299 0.0 1.7 0.00 0.00 0.00 83 1013.0
20260504080303 33 299 0.0 1.7 0.00 0.00 0.00 82 1012.9
20260504070303 34 302 0.0 0.0 0.00 0.00 0.00 81 1012.9
20260504045803 37 302 0.0 0.0 0.00 0.00 0.00 77 1012.7
20260504045304 37 302 0.0 0.0 0.00 0.00 0.00 76 1012.7
20260504044803 37 302 0.0 0.0 0.00 0.00 0.00 76 1012.7
20260504044303 37 302 0.0 1.7 0.00 0.00 0.00 75 1012.7
20260504043804 37 302 0.0 1.7 0.00 0.00 0.00 75 1012.7
20260504042803 37 302 0.0 0.0 0.00 0.00 0.00 74 1012.6
20260504042304 37 302 0.0 0.0 0.00 0.00 0.00 74 1012.5
20260504041803 37 302 0.0 1.7 0.00 0.00 0.00 75 1012.5